Home   Weather   Schorndorf   Past weeks

Flag for Germany Past Weather in Schorndorf, Baden-Württemberg, Germany — Yesterday and Last 2 Weeks

Now
48 °F

Passing clouds.


Feels Like: 45 °F
Forecast: 44 / 57 °F
Wind: 7 mph from Southwest

Location: Stuttgart-Echterdingen

Current Time: Feb 22, 2017 at 2:36:22 am

Latest Report: Feb 22, 2017 at 2:20 am


Visibility: N/A

Pressure: 30.01 "Hg

Humidity: 94%

Dew Point: 46 °F

Location of SchorndorfLocation

Past Weather in Schorndorf — Graph

°F

Schorndorf Temperature Yesterday

Maximum temperature yesterday: 50 °F (at 12:50 pm)
Minimum temperature yesterday: 46 °F (at 12:20 am)
Average temperature yesterday: 48 °F

High & Low Weather Summary for the Past Weeks

 TemperatureHumidityPressure
High59 °F (Feb 16, 2:50 pm)100% (Feb 11, 3:20 am)30.54 "Hg (Feb 11, 3:20 am)
Low23 °F (Feb 11, 5:20 am)47% (Feb 15, 3:50 pm)29.98 "Hg (Feb 7, 1:50 pm)
Average38 °F82%30.22 "Hg
* Reported Feb 7 1:20 am — Feb 22 1:20 am, Schorndorf, Weather by CustomWeather, © 2017

Note: Actual official high and low records may vary slightly from our data, if they occured in-between our weather recording intervals... More about our weather records

Advertising

Schorndorf Weather History for the Previous 24 Hours

Scroll right to see more
 ConditionsComfort  
Time TempWeatherWind HumidityBarometerVisibility
1:20 am
Wed, Feb 22
48 °FPassing clouds.6 mph94%30.01 "HgN/A
12:50 am48 °FPassing clouds.6 mph94%30.04 "HgN/A
12:20 am48 °FPartly cloudy.6 mph94%30.04 "HgN/A
11:50 pm
Tue, Feb 21
48 °FPartly cloudy.6 mph94%30.04 "HgN/A
11:20 pm48 °FLight rain. Partly cloudy.5 mph94%30.04 "HgN/A
10:50 pm48 °FLight rain. Partly cloudy.7 mph94%30.04 "HgN/A
10:20 pm48 °FLight rain. Passing clouds.5 mph94%30.04 "HgN/A
9:50 pm48 °FLight rain. Passing clouds.6 mph94%30.04 "HgN/A
9:20 pm48 °FLight rain. Passing clouds.5 mph94%30.04 "HgN/A
8:50 pm48 °FLight rain. Partly cloudy.5 mph100%30.04 "HgN/A
8:20 pm48 °FPassing clouds.6 mph100%30.04 "HgN/A
7:50 pm48 °FLight rain. Passing clouds.5 mph100%30.07 "HgN/A
7:20 pm48 °FLight rain. Partly cloudy.5 mph100%30.07 "HgN/A
6:50 pm48 °FPartly cloudy.6 mph100%30.07 "Hg4 mi
6:20 pm48 °FPassing clouds.5 mph100%30.04 "Hg3 mi
5:50 pm50 °FDrizzle. Partly sunny.5 mph94%30.04 "Hg2 mi
5:20 pm50 °FDrizzle. Broken clouds.5 mph94%30.04 "Hg5 mi
4:50 pm50 °FLight rain. Broken clouds.6 mph94%30.04 "HgN/A
4:20 pm50 °FDrizzle. Partly sunny.6 mph94%30.04 "HgN/A
3:50 pm50 °FDrizzle. Broken clouds.9 mph94%30.04 "Hg4 mi
3:20 pm50 °FDrizzle. Partly sunny.8 mph94%30.04 "Hg3 mi
2:50 pm50 °FDrizzle. Partly sunny.8 mph94%30.04 "Hg4 mi
2:20 pm50 °FDrizzle. Broken clouds.8 mph94%30.04 "Hg5 mi
1:50 pm50 °FDrizzle. Broken clouds.9 mph94%30.04 "HgN/A
1:20 pm50 °FDrizzle. Partly sunny.12 mph94%30.04 "HgN/A
12:50 pm50 °FDrizzle. Partly sunny.9 mph94%30.04 "Hg6 mi
12:20 pm48 °FDrizzle. Partly sunny.8 mph100%30.04 "Hg2 mi
11:50 am48 °FDrizzle. Broken clouds.9 mph94%30.04 "HgN/A
11:20 am48 °FDrizzle. Broken clouds.8 mph94%30.04 "Hg4 mi
10:50 am48 °FLight rain. Partly sunny.9 mph94%30.04 "HgN/A
10:20 am48 °FLight rain. Partly sunny.9 mph87%30.04 "HgN/A
9:50 am48 °FLight rain. Partly sunny.12 mph87%30.01 "HgN/A
9:20 am46 °FDrizzle. Broken clouds.10 mph93%30.04 "Hg2 mi
8:50 am46 °FLight rain. Partly sunny.10 mph93%30.04 "HgN/A
8:20 am46 °FLight rain. Broken clouds.13 mph93%30.01 "HgN/A
7:50 am46 °FLight rain. Broken clouds.14 mph93%30.01 "HgN/A
7:20 am46 °FLight rain. Partly cloudy.13 mph87%30.01 "HgN/A
6:50 am48 °FPartly cloudy.14 mph82%30.01 "HgN/A
6:20 am48 °FPassing clouds.13 mph82%30.01 "HgN/A
5:50 am46 °FPassing clouds.13 mph87%30.01 "HgN/A
5:20 am46 °FPartly cloudy.15 mph87%30.01 "HgN/A
4:50 am46 °FPassing clouds.13 mph87%30.01 "HgN/A
4:20 am46 °FPartly cloudy.12 mph87%30.01 "HgN/A
3:50 am46 °FPartly cloudy.14 mph87%30.04 "HgN/A
3:20 am46 °FPassing clouds.13 mph87%30.04 "HgN/A
2:50 am46 °FLight rain. Passing clouds.10 mph87%30.04 "HgN/A
2:20 am46 °FPassing clouds.9 mph87%30.04 "HgN/A
Weather by CustomWeather, © 2017

See weather overviewHow to use our weather pages